Location: Newark
(41.9000°N, 12.4833°E)
Time: 19:31:59
(UTC+00:00)

EO-79 - Pass Details

Date: 25 May 2019
Orbit: 592 x 611 km, 97.9° (Epoch: 24 June)

Event Time Altitude Azimuth Distance (km) Brightness Sun altitude
Rises 22:23:06 0° 36° (NE) 2,837 ? -26.3°
Reaches altitude 10° 22:26:47 10° 70° (ENE) 1,927 ? -26.4°
Enters shadow 22:26:58 10° 73° (ENE) 1,902 ? -26.4°
